QPF
0.05 0.06 0.06 0.07 0.06 0.05 0.07 0.10 0.11 0.11 0.10 0.10 0.08 0.07 0.08 0.07 0.06 0.07 0.07 0.05 0.07 0.08 0.08 0.09 0.08 0.08 0.11 0.12 0.11 0.10 0.10 0.07 0.07 0.06 0.05 0.04 0.04 0.04 0.03 0.03 0.03 0.02 0.02
0.05 0.05 0.06 0.06 0.06 0.05 0.07 0.08 0.09 0.09 0.08 0.08 0.07 0.06 0.06 0.06 0.07 0.07 0.09 0.07 0.06 0.09 0.11 0.12 0.12 0.09 0.10 0.11 0.10 0.09 0.10 0.08 0.07 0.06 0.05 0.04 0.03 0.02 0.02 0.03 0.02 0.02 0.01
0.07 0.07 0.09 0.09 0.08 0.06 0.06 0.07 0.08 0.09 0.07 0.07 0.07 0.07 0.06 0.06 0.07 0.11 0.12 0.11 0.10 0.08 0.08 0.10 0.12 0.11 0.11 0.13 0.11 0.09 0.08 0.08 0.07 0.06 0.04 0.03 0.02 0.02 0.02 0.02 0.02 0.02 0.01
0.07 0.08 0.09 0.10 0.11 0.09 0.08 0.09 0.09 0.10 0.09 0.08 0.07 0.08 0.08 0.08 0.09 0.10 0.10 0.10 0.12 0.12 0.09 0.07 0.10 0.09 0.10 0.13 0.14 0.12 0.09 0.08 0.07 0.07 0.04 0.03 0.02 0.02 0.02 0.01 0.02 0.02 0.01
0.08 0.08 0.09 0.11 0.10 0.08 0.07 0.08 0.11 0.11 0.11 0.11 0.10 0.09 0.08 0.08 0.10 0.08 0.10 0.11 0.14 0.13 0.10 0.05 0.07 0.08 0.08 0.09 0.12 0.13 0.13 0.10 0.08 0.07 0.06 0.04 0.03 0.03 0.02 0.02 0.02 0.02 0.02
0.07 0.09 0.10 0.10 0.09 0.09 0.09 0.09 0.10 0.10 0.12 0.12 0.10 0.09 0.10 0.12 0.14 0.12 0.11 0.14 0.13 0.11 0.10 0.07 0.05 0.05 0.05 0.09 0.11 0.13 0.13 0.13 0.11 0.08 0.07 0.05 0.03 0.03 0.03 0.03 0.02 0.03 0.02
0.08 0.09 0.10 0.10 0.10 0.10 0.09 0.08 0.08 0.09 0.12 0.14 0.11 0.11 0.12 0.11 0.13 0.14 0.14 0.13 0.11 0.12 0.14 0.13 0.10 0.07 0.05 0.05 0.08 0.11 0.14 0.14 0.13 0.13 0.11 0.08 0.06 0.04 0.03 0.03 0.03 0.03 0.02
0.06 0.06 0.09 0.10 0.11 0.10 0.09 0.08 0.08 0.09 0.10 0.10 0.10 0.13 0.12 0.10 0.08 0.08 0.09 0.09 0.09 0.12 0.14 0.12 0.09 0.09 0.07 0.06 0.04 0.05 0.07 0.10 0.12 0.12 0.13 0.12 0.08 0.05 0.04 0.04 0.04 0.03 0.02
0.05 0.06 0.07 0.08 0.08 0.08 0.08 0.08 0.08 0.07 0.08 0.08 0.08 0.08 0.11 0.11 0.09 0.09 0.09 0.10 0.11 0.12 0.11 0.12 0.08 0.09 0.08 0.06 0.06 0.04 0.04 0.04 0.06 0.08 0.12 0.15 0.11 0.08 0.06 0.05 0.05 0.04 0.03
0.05 0.05 0.06 0.07 0.07 0.07 0.07 0.06 0.07 0.06 0.06 0.07 0.07 0.06 0.08 0.10 0.10 0.10 0.10 0.09 0.08 0.08 0.08 0.07 0.07 0.10 0.12 0.07 0.07 0.06 0.05 0.04 0.04 0.06 0.10 0.13 0.14 0.12 0.10 0.08 0.07 0.06 0.05
0.05 0.04 0.05 0.05 0.06 0.06 0.06 0.06 0.06 0.06 0.06 0.07 0.09 0.08 0.08 0.09 0.08 0.07 0.09 0.10 0.09 0.08 0.07 0.06 0.07 0.09 0.09 0.08 0.08 0.09 0.08 0.06 0.04 0.04 0.08 0.12 0.14 0.14 0.12 0.10 0.08 0.06 0.05
0.05 0.04 0.03 0.05 0.05 0.05 0.04 0.06 0.05 0.05 0.05 0.07 0.09 0.09 0.08 0.07 0.06 0.06 0.07 0.09 0.10 0.12 0.09 0.07 0.07 0.08 0.10 0.09 0.08 0.10 0.09 0.07 0.06 0.05 0.06 0.09 0.14 0.17 0.19 0.17 0.11 0.09 0.07
0.04 0.04 0.04 0.05 0.06 0.06 0.04 0.04 0.05 0.05 0.05 0.06 0.08 0.08 0.06 0.05 0.06 0.06 0.06 0.06 0.07 0.08 0.09 0.07 0.06 0.07 0.08 0.09 0.09 0.08 0.06 0.06 0.07 0.08 0.07 0.07 0.09 0.09 0.10 0.15 0.19 0.16 0.10
0.03 0.03 0.04 0.05 0.06 0.05 0.04 0.04 0.05 0.05 0.06 0.05 0.05 0.07 0.07 0.05 0.05 0.06 0.06 0.05 0.06 0.06 0.06 0.05 0.05 0.06 0.06 0.07 0.08 0.06 0.04 0.04 0.04 0.07 0.07 0.06 0.07 0.07 0.06 0.07 0.11 0.14 0.14
0.02 0.03 0.03 0.03 0.04 0.04 0.05 0.05 0.06 0.06 0.07 0.07 0.06 0.07 0.07 0.06 0.06 0.05 0.05 0.05 0.05 0.06 0.05 0.04 0.05 0.05 0.06 0.06 0.08 0.06 0.06 0.03 0.02 0.02 0.04 0.05 0.05 0.04 0.03 0.03 0.05 0.07 0.08
0.01 0.02 0.03 0.03 0.03 0.03 0.03 0.05 0.06 0.07 0.07 0.06 0.07 0.07 0.07 0.06 0.06 0.07 0.05 0.05 0.05 0.06 0.05 0.05 0.05 0.04 0.04 0.05 0.07 0.06 0.05 0.03 0.01 0.01 0.01 0.02 0.02 0.01 0.01 0.01 0.02 0.04 0.06
0.01 0.02 0.03 0.03 0.04 0.03 0.02 0.03 0.04 0.05 0.04 0.04 0.05 0.06 0.07 0.06 0.07 0.08 0.08 0.06 0.06 0.05 0.05 0.04 0.04 0.05 0.05 0.04 0.05 0.05 0.05 0.05 0.03 0.01 0.00 0.00 0.00 0.00 0.00 0.01 0.01 0.02 0.04
0.01 0.02 0.03 0.03 0.04 0.03 0.03 0.02 0.02 0.03 0.03 0.03 0.05 0.06 0.06 0.07 0.08 0.07 0.07 0.07 0.07 0.07 0.06 0.05 0.05 0.05 0.05 0.04 0.04 0.03 0.02 0.03 0.03 0.03 0.02 0.01 0.00 0.00 0.00 0.00 0.01 0.01 0.02
0.02 0.02 0.03 0.03 0.03 0.03 0.03 0.02 0.02 0.03 0.07 0.07 0.06 0.06 0.06 0.08 0.08 0.07 0.07 0.06 0.05 0.06 0.07 0.06 0.05 0.06 0.05 0.04 0.05 0.04 0.03 0.03 0.02 0.04 0.03 0.02 0.01 0.00 0.00 0.00 0.00 0.01 0.01
0.02 0.03 0.03 0.03 0.04 0.03 0.03 0.04 0.05 0.08 0.08 0.07 0.06 0.04 0.03 0.04 0.05 0.05 0.05 0.05 0.07 0.08 0.09 0.08 0.06 0.05 0.05 0.05 0.06 0.05 0.05 0.05 0.03 0.02 0.03 0.02 0.01 0.01 0.01 0.00 0.00 0.01 0.01
0.03 0.03 0.03 0.03 0.03 0.03 0.02 0.03 0.04 0.06 0.07 0.06 0.06 0.04 0.03 0.03 0.03 0.03 0.03 0.04 0.05 0.05 0.05 0.05 0.05 0.04 0.04 0.05 0.05 0.05 0.06 0.07 0.06 0.05 0.06 0.04 0.02 0.01 0.01 0.01 0.01 0.01 0.01
0.03 0.03 0.03 0.02 0.02 0.02 0.02 0.02 0.03 0.05 0.04 0.05 0.04 0.04 0.03 0.02 0.02 0.02 0.02 0.02 0.03 0.03 0.04 0.05 0.04 0.04 0.04 0.04 0.05 0.05 0.06 0.08 0.07 0.06 0.07 0.06 0.05 0.04 0.02 0.01 0.01 0.01 0.01
0.05 0.04 0.03 0.03 0.03 0.03 0.03 0.02 0.03 0.05 0.05 0.05 0.05 0.05 0.03 0.01 0.01 0.01 0.02 0.02 0.02 0.03 0.03 0.04 0.04 0.04 0.05 0.05 0.06 0.06 0.07 0.08 0.08 0.09 0.11 0.10 0.08 0.05 0.03 0.02 0.01 0.01 0.01
0.05 0.05 0.04 0.04 0.04 0.03 0.03 0.03 0.02 0.05 0.06 0.06 0.06 0.05 0.04 0.03 0.02 0.03 0.03 0.02 0.02 0.03 0.02 0.02 0.03 0.03 0.03 0.03 0.05 0.05 0.05 0.06 0.07 0.08 0.10 0.10 0.10 0.09 0.06 0.04 0.03 0.02 0.01
0.05 0.05 0.06 0.04 0.03 0.03 0.02 0.02 0.03 0.04 0.07 0.08 0.07 0.06 0.06 0.04 0.03 0.02 0.03 0.03 0.04 0.03 0.01 0.01 0.01 0.01 0.01 0.01 0.02 0.03 0.03 0.04 0.04 0.05 0.06 0.06 0.07 0.08 0.08 0.07 0.05 0.04 0.03
0.03 0.05 0.05 0.06 0.05 0.03 0.02 0.02 0.02 0.03 0.03 0.04 0.06 0.06 0.06 0.04 0.03 0.02 0.02 0.03 0.02 0.02 0.02 0.02 0.02 0.02 0.02 0.02 0.02 0.02 0.03 0.04 0.04 0.04 0.05 0.06 0.05 0.06 0.06 0.06 0.06 0.04 0.03
MSLP
1007.50 1007.84 1008.14 1008.39 1008.58 1008.73 1008.81 1008.85 1008.84 1008.82 1008.82 1008.87 1009.01 1009.27 1009.65 1010.16 1010.77 1011.46 1012.18 1012.89 1013.56 1014.18 1014.74 1015.24 1015.71 1016.15 1016.58 1017.01 1017.43 1017.83 1018.21 1018.56 1018.89 1019.18 1019.44 1019.69 1019.90 1020.09 1020.25 1020.36 1020.42 1020.44 1020.41
1007.41 1007.78 1008.12 1008.42 1008.67 1008.87 1009.00 1009.07 1009.09 1009.08 1009.08 1009.12 1009.23 1009.44 1009.76 1010.19 1010.72 1011.33 1011.99 1012.65 1013.31 1013.94 1014.53 1015.09 1015.61 1016.11 1016.58 1017.03 1017.45 1017.84 1018.20 1018.53 1018.83 1019.12 1019.39 1019.64 1019.87 1020.07 1020.24 1020.35 1020.41 1020.42 1020.39
1007.30 1007.67 1008.04 1008.38 1008.69 1008.94 1009.13 1009.25 1009.31 1009.33 1009.34 1009.38 1009.46 1009.63 1009.89 1010.25 1010.70 1011.23 1011.81 1012.43 1013.06 1013.69 1014.31 1014.91 1015.49 1016.04 1016.55 1017.03 1017.45 1017.83 1018.16 1018.46 1018.75 1019.02 1019.28 1019.53 1019.78 1019.99 1020.17 1020.30 1020.37 1020.38 1020.36
1007.13 1007.49 1007.87 1008.24 1008.59 1008.90 1009.15 1009.32 1009.43 1009.50 1009.53 1009.58 1009.66 1009.80 1010.01 1010.31 1010.69 1011.15 1011.67 1012.24 1012.85 1013.48 1014.12 1014.77 1015.39 1015.99 1016.53 1017.02 1017.44 1017.80 1018.11 1018.38 1018.63 1018.88 1019.13 1019.38 1019.62 1019.85 1020.04 1020.19 1020.27 1020.30 1020.28
1006.90 1007.22 1007.59 1007.99 1008.38 1008.74 1009.04 1009.27 1009.44 1009.55 1009.62 1009.69 1009.77 1009.91 1010.10 1010.37 1010.71 1011.12 1011.60 1012.14 1012.72 1013.35 1014.01 1014.68 1015.34 1015.95 1016.52 1017.01 1017.42 1017.76 1018.04 1018.28 1018.50 1018.72 1018.94 1019.18 1019.42 1019.65 1019.85 1020.00 1020.10 1020.14 1020.13
1006.62 1006.90 1007.26 1007.67 1008.09 1008.49 1008.85 1009.13 1009.35 1009.50 1009.62 1009.72 1009.84 1010.00 1010.20 1010.47 1010.79 1011.19 1011.64 1012.16 1012.73 1013.35 1014.00 1014.67 1015.33 1015.94 1016.50 1016.98 1017.38 1017.69 1017.94 1018.15 1018.34 1018.53 1018.74 1018.96 1019.19 1019.40 1019.60 1019.74 1019.84 1019.88 1019.87
1006.34 1006.58 1006.93 1007.34 1007.79 1008.22 1008.62 1008.95 1009.22 1009.43 1009.60 1009.75 1009.92 1010.12 1010.36 1010.65 1010.99 1011.38 1011.83 1012.32 1012.87 1013.46 1014.08 1014.71 1015.34 1015.92 1016.45 1016.90 1017.27 1017.55 1017.78 1017.97 1018.14 1018.31 1018.51 1018.71 1018.92 1019.12 1019.30 1019.43 1019.51 1019.53 1019.52
1006.11 1006.33 1006.65 1007.07 1007.53 1008.00 1008.43 1008.81 1009.13 1009.39 1009.62 1009.84 1010.06 1010.32 1010.61 1010.94 1011.30 1011.71 1012.14 1012.61 1013.11 1013.64 1014.20 1014.76 1015.32 1015.84 1016.31 1016.71 1017.04 1017.31 1017.52 1017.71 1017.88 1018.05 1018.24 1018.44 1018.64 1018.82 1018.97 1019.07 1019.12 1019.12 1019.08
1005.99 1006.17 1006.48 1006.89 1007.36 1007.85 1008.31 1008.73 1009.10 1009.42 1009.71 1010.00 1010.30 1010.62 1010.96 1011.33 1011.72 1012.12 1012.53 1012.95 1013.38 1013.82 1014.28 1014.74 1015.19 1015.62 1016.01 1016.36 1016.65 1016.91 1017.13 1017.32 1017.52 1017.72 1017.93 1018.13 1018.33 1018.49 1018.62 1018.69 1018.70 1018.67 1018.60
1005.96 1006.11 1006.39 1006.79 1007.27 1007.76 1008.25 1008.71 1009.13 1009.51 1009.87 1010.22 1010.59 1010.97 1011.36 1011.76 1012.15 1012.53 1012.89 1013.24 1013.57 1013.90 1014.23 1014.56 1014.89 1015.21 1015.52 1015.81 1016.08 1016.33 1016.57 1016.80 1017.04 1017.29 1017.54 1017.77 1017.98 1018.14 1018.25 1018.29 1018.28 1018.22 1018.12
1005.99 1006.09 1006.35 1006.72 1007.18 1007.68 1008.19 1008.68 1009.14 1009.58 1010.01 1010.43 1010.85 1011.28 1011.71 1012.12 1012.49 1012.83 1013.13 1013.38 1013.60 1013.80 1013.99 1014.19 1014.40 1014.61 1014.84 1015.08 1015.33 1015.59 1015.86 1016.15 1016.45 1016.76 1017.07 1017.35 1017.59 1017.76 1017.87 1017.90 1017.86 1017.78 1017.67
1006.01 1006.06 1006.26 1006.59 1007.02 1007.51 1008.03 1008.55 1009.06 1009.55 1010.04 1010.52 1010.99 1011.46 1011.89 1012.29 1012.64 1012.92 1013.13 1013.29 1013.39 1013.48 1013.55 1013.63 1013.73 1013.86 1014.03 1014.23 1014.47 1014.74 1015.05 1015.40 1015.76 1016.14 1016.51 1016.85 1017.13 1017.34 1017.46 1017.50 1017.46 1017.37 1017.26
1005.97 1005.95 1006.09 1006.36 1006.74 1007.20 1007.71 1008.25 1008.79 1009.34 1009.87 1010.40 1010.91 1011.39 1011.83 1012.21 1012.51 1012.73 1012.87 1012.94 1012.96 1012.95 1012.94 1012.93 1012.97 1013.04 1013.17 1013.35 1013.58 1013.87 1014.22 1014.61 1015.03 1015.47 1015.89 1016.28 1016.61 1016.86 1017.01 1017.07 1017.06 1016.99 1016.89
1005.85 1005.75 1005.80 1005.99 1006.31 1006.73 1007.22 1007.76 1008.32 1008.90 1009.48 1010.04 1010.57 1011.06 1011.49 1011.84 1012.10 1012.27 1012.35 1012.37 1012.34 1012.29 1012.23 1012.20 1012.21 1012.26 1012.38 1012.55 1012.79 1013.09 1013.45 1013.86 1014.31 1014.78 1015.24 1015.67 1016.04 1016.33 1016.52 1016.62 1016.64 1016.61 1016.54
1005.66 1005.47 1005.43 1005.54 1005.78 1006.14 1006.59 1007.12 1007.68 1008.27 1008.87 1009.44 1009.99 1010.47 1010.88 1011.21 1011.44 1011.58 1011.65 1011.65 1011.62 1011.57 1011.53 1011.52 1011.55 1011.63 1011.76 1011.94 1012.18 1012.47 1012.82 1013.22 1013.67 1014.13 1014.60 1015.04 1015.44 1015.76 1015.99 1016.14 1016.21 1016.23 1016.21
1005.44 1005.19 1005.07 1005.09 1005.25 1005.53 1005.93 1006.41 1006.95 1007.53 1008.12 1008.69 1009.22 1009.69 1010.09 1010.40 1010.62 1010.76 1010.84 1010.87 1010.88 1010.89 1010.92 1010.98 1011.07 1011.20 1011.36 1011.56 1011.79 1012.06 1012.38 1012.73 1013.13 1013.56 1014.00 1014.44 1014.83 1015.18 1015.45 1015.65 1015.77 1015.85 1015.89
1005.28 1004.98 1004.79 1004.73 1004.80 1005.01 1005.32 1005.74 1006.23 1006.76 1007.31 1007.85 1008.36 1008.81 1009.19 1009.49 1009.72 1009.89 1010.01 1010.11 1010.20 1010.31 1010.44 1010.60 1010.78 1010.98 1011.18 1011.40 1011.62 1011.85 1012.11 1012.41 1012.73 1013.09 1013.48 1013.88 1014.26 1014.61 1014.91 1015.15 1015.34 1015.48 1015.58
1005.20 1004.88 1004.65 1004.52 1004.51 1004.62 1004.85 1005.17 1005.58 1006.04 1006.53 1007.02 1007.49 1007.91 1008.27 1008.58 1008.82 1009.03 1009.22 1009.40 1009.60 1009.82 1010.07 1010.33 1010.61 1010.88 1011.14 1011.37 1011.58 1011.78 1011.97 1012.19 1012.43 1012.71 1013.03 1013.38 1013.74 1014.09 1014.41 1014.70 1014.94 1015.13 1015.30
1005.20 1004.90 1004.64 1004.46 1004.37 1004.39 1004.51 1004.72 1005.02 1005.39 1005.80 1006.22 1006.64 1007.02 1007.37 1007.68 1007.96 1008.22 1008.47 1008.74 1009.04 1009.37 1009.73 1010.10 1010.47 1010.81 1011.11 1011.36 1011.56 1011.72 1011.87 1012.01 1012.18 1012.39 1012.65 1012.95 1013.29 1013.63 1013.98 1014.30 1014.59 1014.84 1015.07
1005.23 1004.96 1004.70 1004.47 1004.31 1004.23 1004.23 1004.33 1004.51 1004.78 1005.09 1005.44 1005.80 1006.16 1006.50 1006.82 1007.13 1007.44 1007.76 1008.11 1008.49 1008.90 1009.35 1009.80 1010.24 1010.64 1010.98 1011.25 1011.45 1011.59 1011.70 1011.80 1011.92 1012.09 1012.30 1012.58 1012.90 1013.25 1013.62 1013.98 1014.31 1014.62 1014.90
1005.20 1004.96 1004.70 1004.44 1004.22 1004.04 1003.93 1003.91 1003.98 1004.14 1004.37 1004.65 1004.97 1005.31 1005.65 1005.99 1006.33 1006.68 1007.05 1007.45 1007.88 1008.36 1008.85 1009.35 1009.83 1010.27 1010.64 1010.93 1011.15 1011.30 1011.41 1011.51 1011.62 1011.77 1011.97 1012.24 1012.57 1012.94 1013.33 1013.73 1014.11 1014.46 1014.78
1005.03 1004.82 1004.56 1004.27 1003.98 1003.72 1003.52 1003.39 1003.36 1003.43 1003.59 1003.82 1004.12 1004.45 1004.81 1005.17 1005.54 1005.93 1006.33 1006.76 1007.22 1007.71 1008.21 1008.72 1009.22 1009.67 1010.06 1010.38 1010.63 1010.82 1010.96 1011.09 1011.23 1011.41 1011.64 1011.93 1012.28 1012.68 1013.10 1013.53 1013.95 1014.34 1014.70
1004.67 1004.48 1004.21 1003.89 1003.55 1003.22 1002.94 1002.74 1002.63 1002.64 1002.76 1002.98 1003.27 1003.62 1004.00 1004.40 1004.81 1005.22 1005.63 1006.06 1006.51 1006.98 1007.46 1007.95 1008.43 1008.88 1009.29 1009.64 1009.93 1010.17 1010.38 1010.57 1010.77 1011.01 1011.29 1011.63 1012.02 1012.46 1012.91 1013.38 1013.83 1014.25 1014.63
1004.16 1003.96 1003.68 1003.33 1002.95 1002.58 1002.24 1001.99 1001.85 1001.84 1001.95 1002.18 1002.49 1002.88 1003.30 1003.74 1004.17 1004.59 1005.00 1005.41 1005.82 1006.24 1006.68 1007.12 1007.56 1007.99 1008.40 1008.78 1009.12 1009.43 1009.71 1009.98 1010.27 1010.58 1010.93 1011.33 1011.77 1012.24 1012.74 1013.23 1013.71 1014.15 1014.55
1003.56 1003.35 1003.05 1002.69 1002.28 1001.89 1001.54 1001.28 1001.13 1001.13 1001.26 1001.52 1001.87 1002.30 1002.76 1003.23 1003.68 1004.10 1004.50 1004.86 1005.22 1005.57 1005.94 1006.31 1006.71 1007.11 1007.52 1007.92 1008.30 1008.68 1009.04 1009.40 1009.77 1010.16 1010.58 1011.03 1011.52 1012.03 1012.55 1013.07 1013.56 1014.01 1014.42
1002.98 1002.76 1002.46 1002.09 1001.69 1001.30 1000.96 1000.72 1000.60 1000.62 1000.79 1001.09 1001.49 1001.95 1002.44 1002.92 1003.38 1003.78 1004.13 1004.45 1004.74 1005.02 1005.31 1005.62 1005.96 1006.33 1006.73 1007.14 1007.57 1008.00 1008.43 1008.87 1009.31 1009.77 1010.25 1010.75 1011.27 1011.81 1012.35 1012.88 1013.38 1013.84 1014.25
Thickness
5764 5763 5762 5760 5759 5758 5756 5754 5753 5753 5752 5752 5751 5750 5749 5748 5748 5745 5744 5743 5742 5741 5740 5739 5737 5736 5735 5733 5732 5731 5730 5729 5728 5727 5726 5725 5724 5724 5723 5722 5721 5719 5718
5763 5762 5760 5759 5758 5757 5756 5754 5753 5752 5751 5750 5750 5749 5748 5748 5747 5746 5744 5742 5741 5740 5739 5737 5736 5735 5733 5732 5731 5730 5729 5728 5727 5726 5725 5724 5723 5722 5721 5720 5719 5718 5716
5760 5760 5759 5758 5757 5756 5755 5754 5752 5751 5750 5749 5748 5748 5748 5747 5747 5746 5744 5742 5740 5739 5738 5737 5735 5734 5733 5732 5730 5729 5728 5727 5726 5725 5724 5723 5722 5721 5720 5719 5718 5716 5715
5759 5758 5757 5756 5756 5755 5753 5752 5750 5747 5747 5746 5745 5746 5746 5745 5745 5745 5744 5742 5741 5739 5738 5736 5735 5734 5732 5731 5730 5729 5728 5726 5725 5724 5723 5722 5721 5719 5718 5717 5716 5715 5713
5757 5756 5755 5755 5754 5753 5752 5751 5749 5746 5745 5744 5743 5743 5743 5743 5743 5743 5742 5742 5741 5739 5738 5736 5735 5733 5732 5731 5730 5728 5727 5726 5724 5723 5722 5721 5720 5718 5717 5715 5714 5713 5712
5755 5754 5753 5753 5752 5750 5749 5748 5746 5746 5744 5743 5742 5741 5740 5742 5742 5742 5742 5741 5740 5739 5738 5737 5734 5733 5732 5731 5730 5729 5727 5726 5724 5723 5721 5720 5719 5717 5715 5714 5712 5711 5710
5754 5752 5751 5751 5749 5747 5746 5745 5744 5742 5741 5741 5737 5735 5737 5741 5741 5741 5741 5741 5740 5739 5737 5736 5734 5732 5731 5729 5728 5728 5727 5726 5724 5722 5720 5719 5718 5716 5714 5712 5710 5709 5708
5752 5752 5749 5748 5747 5745 5744 5743 5741 5739 5739 5739 5734 5730 5727 5731 5737 5741 5740 5739 5738 5738 5737 5735 5734 5732 5731 5729 5727 5727 5726 5725 5723 5721 5720 5718 5717 5715 5713 5711 5709 5707 5706
5750 5748 5747 5746 5744 5743 5741 5740 5739 5737 5734 5737 5737 5731 5725 5722 5728 5734 5737 5737 5737 5736 5734 5734 5733 5732 5730 5729 5727 5726 5725 5723 5722 5720 5719 5717 5715 5713 5712 5710 5708 5706 5705
5748 5746 5745 5743 5742 5740 5739 5738 5738 5737 5734 5732 5734 5734 5732 5730 5723 5722 5728 5733 5734 5733 5733 5733 5732 5731 5729 5727 5727 5725 5723 5721 5719 5718 5716 5714 5713 5711 5709 5708 5706 5705 5703
5745 5743 5742 5741 5739 5738 5737 5736 5735 5734 5733 5731 5730 5730 5730 5729 5728 5721 5718 5723 5727 5729 5730 5730 5730 5729 5728 5726 5725 5723 5721 5718 5717 5715 5713 5712 5710 5709 5707 5706 5704 5703 5701
5742 5741 5740 5738 5737 5736 5735 5734 5733 5731 5730 5729 5728 5727 5726 5724 5723 5721 5718 5718 5720 5723 5727 5727 5727 5726 5725 5724 5723 5721 5718 5715 5714 5712 5711 5709 5707 5706 5705 5703 5701 5700 5699
5738 5737 5737 5735 5734 5733 5733 5731 5730 5728 5727 5726 5724 5724 5725 5725 5725 5722 5718 5716 5716 5719 5722 5723 5724 5723 5722 5720 5718 5717 5715 5712 5711 5709 5707 5706 5704 5703 5701 5700 5698 5697 5696
5736 5736 5734 5733 5732 5731 5730 5728 5727 5726 5725 5723 5723 5722 5721 5722 5722 5721 5717 5714 5710 5711 5714 5716 5720 5721 5719 5717 5715 5713 5711 5709 5707 5705 5704 5702 5701 5700 5698 5697 5695 5694 5693
5735 5734 5732 5730 5728 5727 5726 5725 5723 5722 5721 5720 5719 5719 5718 5718 5719 5718 5717 5715 5708 5702 5703 5710 5713 5716 5716 5714 5712 5709 5708 5705 5704 5702 5701 5699 5698 5696 5695 5694 5692 5691 5690
5732 5730 5728 5726 5725 5724 5723 5722 5720 5719 5717 5716 5715 5714 5714 5714 5714 5714 5713 5712 5710 5705 5700 5706 5708 5711 5711 5710 5707 5706 5704 5702 5700 5698 5697 5696 5694 5693 5692 5691 5689 5688 5687
5728 5726 5724 5722 5721 5720 5719 5717 5716 5715 5713 5711 5711 5710 5710 5710 5708 5707 5707 5706 5705 5703 5698 5700 5704 5705 5704 5703 5702 5701 5700 5699 5696 5695 5694 5693 5692 5691 5689 5688 5686 5685 5684
5724 5723 5721 5719 5717 5716 5714 5713 5711 5710 5708 5707 5706 5705 5704 5704 5703 5702 5701 5700 5699 5699 5696 5692 5695 5697 5697 5698 5697 5696 5696 5695 5695 5694 5693 5691 5690 5689 5687 5686 5684 5682 5681
5720 5719 5717 5714 5712 5711 5710 5709 5707 5706 5705 5703 5701 5699 5698 5697 5696 5696 5695 5695 5694 5695 5693 5690 5689 5691 5692 5692 5691 5691 5691 5691 5692 5692 5690 5689 5687 5686 5685 5683 5682 5680 5678
5715 5714 5712 5710 5708 5706 5705 5703 5702 5701 5699 5698 5697 5695 5694 5693 5691 5690 5690 5689 5689 5687 5687 5685 5684 5685 5685 5686 5684 5682 5682 5685 5686 5688 5687 5686 5684 5682 5681 5680 5678 5676 5675
5711 5709 5707 5705 5703 5701 5699 5697 5696 5695 5693 5692 5691 5690 5689 5688 5686 5685 5684 5683 5682 5680 5679 5678 5677 5678 5677 5677 5676 5677 5676 5677 5680 5682 5681 5681 5680 5678 5677 5676 5674 5673 5671
5704 5703 5701 5699 5697 5695 5692 5691 5690 5688 5687 5686 5685 5684 5683 5681 5680 5678 5677 5677 5676 5674 5673 5671 5671 5671 5671 5672 5672 5671 5670 5669 5669 5675 5674 5674 5676 5675 5675 5674 5672 5670 5668
5697 5695 5694 5692 5689 5687 5685 5684 5683 5682 5681 5680 5679 5677 5677 5677 5674 5672 5671 5670 5670 5670 5668 5667 5665 5665 5666 5667 5666 5664 5664 5663 5664 5668 5667 5666 5670 5670 5672 5672 5670 5667 5665
5690 5688 5686 5685 5683 5681 5679 5677 5676 5675 5674 5674 5673 5672 5670 5668 5667 5665 5665 5665 5665 5665 5664 5663 5662 5662 5662 5662 5661 5660 5659 5659 5661 5664 5664 5660 5663 5663 5666 5666 5666 5664 5661
5682 5681 5680 5679 5677 5674 5672 5671 5669 5668 5667 5667 5667 5665 5664 5661 5659 5657 5657 5656 5657 5658 5658 5658 5658 5657 5657 5656 5654 5652 5652 5650 5651 5655 5658 5656 5657 5657 5658 5659 5660 5658 5657
5676 5675 5673 5672 5671 5668 5665 5664 5661 5661 5660 5659 5658 5657 5655 5653 5651 5649 5649 5649 5649 5650 5651 5651 5651 5651 5652 5651 5650 5647 5646 5644 5644 5646 5651 5650 5650 5650 5649 5653 5653 5652 5650